Louisburg, NC

5:35 AM EDT on September 23, 2017 (GMT -0400)
Franklin County

Weather History for KLHZ - January, 2013

Change the Weather History Date:

Tuesday, January 22, 2013

  Actual Average (KRDU) Record (KRDU)
Temperature  
Mean Temperature 34 °F -  
Max Temperature 39 °F 48 °F 76 °F (1937)
Min Temperature 28 °F 28 °F 0 °F (1970)
Degree Days  
Heating Degree Days 30    
Moisture  
Dew Point 0 °F    
Average Humidity 24    
Maximum Humidity 45    
Minimum Humidity 18    
Precipitation  
Precipitation 0.00 in - - ()
Sea Level Pressure  
Sea Level Pressure 30.18 in    
Wind  
Wind Speed 5 mph (NW)    
Max Wind Speed 12 mph    
Max Gust Speed 16 mph    
Visibility 10 miles    
Events      
Averages and records for this station are not official NWS values.
T = Trace of Precipitation, MM = Missing Value Source: NWS Daily Summary

Daily Weather History Graph

Daily Weather History Graph

Search for Another Location

Airport or City:

Trip Planner

Search our weather history database for the weather conditions in past years. The results will help you decide how hot, cold, wet, or windy it might be!

Date:

Astronomy

Jan. 22, 2013 Rise Set
Actual Time 7:20 AM EST 5:30 PM EST
Civil Twilight 6:52 AM EST 5:57 PM EST
Nautical Twilight 6:21 AM EST 6:28 PM EST
Astronomical Twilight 5:51 AM EST 6:59 PM EST
Moon 1:52 PM EST (1/22) 3:39 AM EST (1/22)
Length of Visible Light 11h 04m
Length of Day
10h 09m
Waxing Gibbous, 82% of the Moon is Illuminated
Jan 22
Waxing Gibbous
Jan 26
Full
Feb 3
Last Quarter
Feb 10
New
Feb 17
First Quarter

Hourly Weather History & Observations

Time (EST) Temp. Windchill Dew Point Humidity Pressure Visibility Wind Dir Wind Speed Gust Speed Precip Events Conditions
12:15 AM 39.2 °F - 15.8 °F 39% 29.95 in 10.0 mi Calm Calm - N/A   Clear
12:35 AM 37.4 °F - 17.6 °F 45% 29.96 in 10.0 mi Calm Calm - N/A   Clear
10:35 AM 32.0 °F 24.2 °F 1.4 °F 27% 30.23 in 10.0 mi NW 9.2 mph - N/A   Clear
10:55 AM 32.0 °F 24.2 °F -0.4 °F 25% 30.23 in 10.0 mi NW 9.2 mph - N/A   Clear
11:15 AM 33.8 °F 27.7 °F -0.4 °F 23% 30.23 in 10.0 mi NNW 6.9 mph - N/A   Clear
11:35 AM 33.8 °F 25.3 °F -0.4 °F 23% 30.22 in 10.0 mi NNW 11.5 mph 16.1 mph N/A   Clear
11:55 AM 33.8 °F 26.4 °F -0.4 °F 23% 30.21 in 10.0 mi NW 9.2 mph - N/A   Clear
12:15 PM 33.8 °F 26.4 °F -0.4 °F 23% 30.21 in 10.0 mi WNW 9.2 mph - N/A   Clear
12:35 PM 33.8 °F 27.0 °F -0.4 °F 23% 30.19 in 10.0 mi NNW 8.1 mph - N/A   Clear
12:55 PM 33.8 °F 27.7 °F -2.2 °F 22% 30.19 in 10.0 mi WNW 6.9 mph - N/A   Clear
1:15 PM 33.8 °F 27.7 °F -5.8 °F 18% 30.18 in 10.0 mi West 6.9 mph - N/A   Clear
1:35 PM 33.8 °F 27.0 °F -5.8 °F 18% 30.18 in 10.0 mi NW 8.1 mph 16.1 mph N/A   Clear
1:55 PM 33.8 °F 26.4 °F -5.8 °F 18% 30.18 in 10.0 mi NNW 9.2 mph 16.1 mph N/A   Clear
2:15 PM 35.6 °F 31.7 °F -4.0 °F 18% 30.18 in 10.0 mi NNW 4.6 mph - N/A   Clear
2:35 PM 33.8 °F - -4.0 °F 20% 30.18 in 10.0 mi Calm Calm - N/A   Clear
2:55 PM 33.8 °F 29.6 °F -4.0 °F 20% 30.18 in 10.0 mi WSW 4.6 mph - N/A   Clear
3:15 PM 35.6 °F 28.6 °F -4.0 °F 18% 30.18 in 10.0 mi NW 9.2 mph - N/A   Clear
3:35 PM 33.8 °F 30.8 °F -4.0 °F 20% 30.18 in 10.0 mi NW 3.5 mph - N/A   Clear
3:55 PM 33.8 °F 29.6 °F -4.0 °F 20% 30.18 in 10.0 mi WNW 4.6 mph - N/A   Clear
4:15 PM 35.6 °F 31.7 °F -0.4 °F 22% 30.19 in 10.0 mi NW 4.6 mph - N/A   Clear
4:35 PM 33.8 °F 28.6 °F -0.4 °F 23% 30.19 in 10.0 mi WNW 5.8 mph - N/A   Clear
4:55 PM 33.8 °F 29.6 °F -0.4 °F 23% 30.19 in 10.0 mi WNW 4.6 mph - N/A   Clear
5:15 PM 33.8 °F - -0.4 °F 23% 30.20 in 10.0 mi Calm Calm - N/A   Clear
5:35 PM 32.0 °F - 1.4 °F 27% 30.20 in 10.0 mi Calm Calm - N/A   Clear
5:55 PM 30.2 °F - 1.4 °F 29% 30.21 in 10.0 mi Calm Calm - N/A   Clear
6:15 PM 28.4 °F - 3.2 °F 34% 30.21 in 10.0 mi Calm Calm - N/A   Clear